{"data":{"norad_id":63287,"epoch":"2026-09-20T21:51:11.041344Z","epoch_age_seconds":123334,"freshness":"FRESH","line1":"1 63287U 25053Y   26263.91054446  .00011259  00000+0  41791-3 0  9995","line2":"2 63287  42.9999 218.9512 0000949 263.7411  96.3333 15.27589635 86107","mean_motion":15.27589635,"eccentricity":9.49e-5,"inclination_deg":42.9999,"raan_deg":218.9512,"arg_perigee_deg":263.7411,"mean_anomaly_deg":96.3333,"bstar":0.00041791,"rev_number":8610,"period_min":94.266154142896,"perigee_km":482.36912171252,"apogee_km":483.67136935772,"semimajor_km":6861.1572455351,"source":"CELESTRAK","updated_at":"2026-09-21T09:00:34.966704Z"}}